User: anonymous   Login
Location: Unspecified
(0.0000°N, 0.0000°E)
Time: 23:57:12
(UTC+01:00)
Language:

CZ-4B DEB - Orbit

View from above orbital plane
View from above orbital plane
View from above satellite
View from above satellite

Ground track
Ground track

The orbit data is extracted from the following two-line orbital elements,

1 33411U 08053D   15056.16897927  .00023033  00000-0  10441-2 0  9997
2 33411 097.4974 077.3880 0010989 104.9511 255.2941 15.20794808346594
Epoch (UTC): 25 February 2015 04:03:19
Eccentricity: 0.0010989
inclination: 97.4974°
perigee height: 496 km
apogee height: 511 km
right ascension of ascending node: 77.3880°
argument of perigee: 104.9511°
revolutions per day: 15.20794808
mean anomaly at epoch: 255.2941°
orbit number at epoch: 34659

The dashed part of the orbit path shows where the satellite is in the earth's shadow,  

DLR